Content
SEND FEEDBACK

Daily
Averages
Monthly
Summary
Czech Republic

PRAGUE, CZECH REPUBLIC


Home > Europe > Czech Republic
Elevation: 1184 feet     Latitude: 50 06N     Longitude: 014 15E

WEATHER
 
SELECT A DAY
Number of Records: 320,132;   Date Range: 7/1/96 - 7/20/14
 
SHARE

PRINT THIS DATA

[ ← Previous Day ]
WEATHER ALMANAC - JULY 6, 2013
[ Next Day → ]
[ °C ]   °F
Weather ElementAverageHighLow
Temperature66.2 °F74 °F (2:00 pm)59 °F (2:30 am)
Dewpoint58.6 °F60.8 °F (7:30 am)55.4 °F (2:00 am)
Humidity77 %94 % (4:00 am)52 % (8:00 pm)
Barometer30.38 in30.39 in (12:30 am)30.33 in (6:30 pm)
Wind Speed8.5 mph11.5 mph (7:00 am)
Weather ElementAverage
Visibility5.9 mi
Wind DirectionSSW (210.6 °)

Weather ElementTotal
Precipitation---
Cooling Degree Days1.5 (Base 65)
Growing Degree Days16.5 (Base 50)
Averaged from 53 records on July 6, 2013
WEATHER CONDITIONS BREAKOUT
WIND DIRECTION BREAKOUT
WEATHER BY HOUR - JULY 6, 2013
[ °C ]   °F
Local TimeTemperatureDewpointHumidityBarometerVisibilityWind DirectionWind SpeedGust SpeedPrecipitationEventsConditions
12:30 AM60.8 °F57.2 °F88 %30.39 inNW (310°)8.1 mphClear
1:00 AM60.8 °F57.2 °F88 %30.39 inNW (320°)8.1 mphClear
1:30 AM60.8 °F57.2 °F88 %30.39 inNW (320°)6.9 mphClear
2:00 AM60.0 °F56.0 °F83 %30.38 in7.0 miNW (310°)4.5 mphMostly Cloudy
2:00 AM60.8 °F55.4 °F82 %30.39 inNW (320°)6.9 mphClear
2:30 AM59.0 °F55.4 °F88 %30.39 inNW (310°)6.9 mphClear
3:00 AM59.0 °F55.4 °F88 %30.39 inNW (310°)6.9 mphClear
3:30 AM59.0 °F55.4 °F88 %30.39 inNW (310°)8.1 mphClear
4:00 AM59.0 °F57.2 °F94 %30.36 in5.0 miNW (320°)9.2 mph
4:30 AM59.0 °F57.2 °F94 %30.36 in3.7 miNNW (340°)8.1 mph
4:46 AM59.0 °F57.2 °F94 %30.39 in2.8 miNNW (340°)9.2 mphMist
5:00 AM59.0 °F57.2 °F94 %30.39 in2.8 miNNW (330°)8.1 mphMist
5:30 AM59.0 °F57.2 °F94 %30.39 in2.5 miNNW (340°)9.2 mphMist
6:00 AM59.0 °F57.2 °F94 %30.39 in2.8 miNNW (330°)9.2 mphPartly Cloudy
6:30 AM60.8 °F59.0 °F94 %30.39 in3.1 miNNW (340°)10.4 mphMist
7:00 AM62.6 °F59.0 °F88 %30.39 in3.1 miNNW (340°)11.5 mphMist
7:30 AM62.6 °F60.8 °F94 %30.39 in3.1 miNNW (340°)10.4 mphPartly Cloudy
8:00 AM64.0 °F60.0 °F84 %30.38 in4.0 miNorth8.9 mphMist
8:00 AM64.4 °F60.8 °F88 %30.39 in3.7 miNNW (340°)9.2 mphScattered Clouds
8:14 AM64.4 °F60.8 °F88 %30.39 in3.7 miNorth (350°)10.4 mphScattered Clouds
8:30 AM64.4 °F60.8 °F88 %30.39 in3.7 miNorth (360°)9.2 mphMostly Cloudy
9:00 AM66.2 °F60.8 °F83 %30.39 in4.3 miNorth (360°)10.4 mphMostly Cloudy
9:30 AM66.2 °F60.8 °F83 %30.39 in5.0 miNorth (360°)10.4 mphMostly Cloudy
10:00 AM66.2 °F60.8 °F83 %30.39 in5.6 miNorth (350°)9.2 mphMostly Cloudy
10:30 AM69.8 °F60.8 °F73 %30.39 in6.2 miNorth (360°)11.5 mphMostly Cloudy
11:00 AM69.8 °F60.8 °F73 %30.39 in6.2 miNorth (360°)10.4 mphMostly Cloudy
11:30 AM69.8 °F60.8 °F73 %30.39 in6.2 miNorth (350°)11.5 mphMostly Cloudy
12:00 PM69.8 °F60.8 °F73 %30.39 in6.2 miNNE (20°)10.4 mphScattered Clouds
12:30 PM69.8 °F59.0 °F68 %30.39 in6.2 miNorth (10°)9.2 mphScattered Clouds
1:00 PM71.6 °F60.8 °F69 %30.39 in6.2 miNorth (360°)9.2 mphScattered Clouds
1:30 PM73.4 °F59.0 °F61 %30.39 in6.2 miNorth (360°)10.4 mphScattered Clouds
2:00 PM74.0 °F60.0 °F53 %30.35 in16.0 miNorth8.9 mphPartly Cloudy
2:00 PM73.4 °F59.0 °F61 %30.39 in6.2 miNorth (10°)9.2 mphScattered Clouds
2:30 PM71.6 °F60.8 °F69 %30.39 in6.2 miENE (60°)9.2 mphScattered Clouds
3:00 PM71.6 °F60.8 °F69 %30.39 in6.2 miENE (60°)8.1 mphScattered Clouds
3:30 PM71.6 °F59.0 °F64 %30.39 in6.2 miNE (50°)6.9 mphPartly Cloudy
4:00 PM71.6 °F57.2 °F60 %30.36 in6.2 miNE (50°)8.1 mphPartly Cloudy
4:30 PM71.6 °F59.0 °F64 %30.36 in6.2 miENE (60°)8.1 mphPartly Cloudy
5:00 PM71.6 °F59.0 °F64 %30.36 in6.2 miNE (50°)8.1 mphPartly Cloudy
5:30 PM71.6 °F59.0 °F64 %30.36 in6.2 miNNE (30°)10.4 mphPartly Cloudy
6:00 PM73.4 °F59.0 °F61 %30.36 in6.2 miNE (40°)9.2 mphPartly Cloudy
6:30 PM73.4 °F57.2 °F57 %30.33 in6.2 miNNE (20°)9.2 mphPartly Cloudy
7:00 PM73.4 °F59.0 °F61 %30.36 in6.2 miNNE (30°)10.4 mphPartly Cloudy
7:30 PM71.6 °F59.0 °F64 %30.36 in6.2 miNNE (30°)5.8 mphPartly Cloudy
8:00 PM71.0 °F57.0 °F52 %30.33 in22.0 miNNE (30°)8.9 mphScattered Clouds
8:00 PM71.6 °F57.2 °F60 %30.36 in6.2 miNNE (30°)8.1 mphPartly Cloudy
8:30 PM69.8 °F59.0 °F68 %30.36 inNNE (20°)5.8 mphClear
9:00 PM68.0 °F59.0 °F73 %30.36 inNorth (10°)4.6 mphClear
9:30 PM66.2 °F59.0 °F78 %30.39 inNorth (10°)5.8 mphClear
10:00 PM64.4 °F57.2 °F77 %30.39 inNorth (360°)6.9 mphClear
10:30 PM64.4 °F57.2 °F77 %30.39 inNorth (360°)6.9 mphClear
11:00 PM62.6 °F57.2 °F82 %30.39 inNorth (360°)4.6 mphClear
11:30 PM62.6 °F57.2 °F82 %30.39 in6.2 miNNE (20°)3.5 mphPartly Cloudy
Hourly data recorded from LKPR, located miles away from Prague, Czech Republic







STORIES FROM OUR PARTNERS